Tracking 30986 objects as of 9-Jul-2025
HD Live streaming from Space Station
objects crossing your sky now

CZ-6A DEB

Track CZ-6A DEB now!
10-day predictions


NORAD ID: 54504
Int'l Code: 2022-151JG
Perigee: 824.9 km
Apogee: 882.7 km
Inclination: 98.8 °
Period: 101.9 minutes
Semi major axis: 7224 km
RCS: Unknown
Launch date: November 11, 2022
Source: People's Republic of China (PRC)
Launch site: Taiyaun Space Center, China (TSC)

Note: This is SATELLITE DEBRIS
Your satellite tracking list
Your tracking list is empty




NASA's NSSDC Master Catalog

Two Line Element Set (TLE):
1 54504U 22151JG  25190.56910145  .00000611  00000-0  34418-3 0  9998
2 54504  98.8363 197.2503 0039984 186.0307 174.0389 14.13723251136733
Source of the keplerian elements: AFSPC